Other Public Products
Issued by NWS Grand Forks, ND

Home | Current Version | Previous Version | Text Only | Print | Product List | Glossary On
Versions: 1 2 3 4 5 6 7 8 9 10 11 12 13 14 15 16 17 18 19 20 21 22 23 24 25 26 27 28 29 30 31 32 33 34 35 36 37 38 39 40 41 42 43 44 45 46 47 48 49 50
000
FPUS83 KFGF 210310
OPUFGF
PRAIRIE TO PINES WEATHER ROUNDUP
NATIONAL WEATHER SERVICE EASTERN NORTH DAKOTA/GRAND FORKS ND
900 PM CST SAT JAN 20 2018

 **SATELLITE DATA USED TO AUGMENT SKY COVER AT AUTOMATED STATIONS**
 *****  WEATHER ACROSS EASTERN NORTH DAKOTA  *****

CITY           SKY/WX    TMP DP  RH WIND       PRES   REMARKS
GRAND FORKS    FAIR      21  19  92 S5        29.88S WCI  15
GRND FORKS AFB FAIR      29  24  79 NW10      29.87F WCI  20
GRND FORKS NWS NOT AVBL
BUXTON         NOT AVBL
DEVILS LAKE    FAIR      23  20  88 SW5       29.89S WCI  17
FARGO          FAIR      31  28  89 W3        29.91S
WAHPETON ARPT  FAIR      30  28  93 CALM      29.94R
$$

 *****  WEATHER ACROSS CENTRAL AND WESTERN NORTH DAKOTA  *****

CITY           SKY/WX    TMP DP  RH WIND       PRES   REMARKS
JAMESTOWN      FAIR      30  26  85 SW9       29.90R WCI  22
BISMARCK       FAIR      24  21  88 S3        29.94R
MINOT          FAIR      29  20  69 W9        29.90R WCI  20
MINOT AFB      FAIR      24  19  80 W7        29.89R WCI  16
GARRISON         N/A     28  20  71 W9        29.90S WCI  19
WILLISTON      FAIR      20  15  81 SW3       29.93R
DICKINSON      FAIR      26  21  81 W12       29.91R WCI  16
HETTINGER      FAIR      28  21  75 W6        29.95R WCI  22
$$

 *****  OTHER OBSERVATIONS NORTHEAST NORTH DAKOTA  *****

CITY           SKY/WX    TMP DP  RH WIND       PRES   REMARKS
WALHALLA       FAIR      28  28 100 W9        29.87R WCI  20
LANGDON        NOT AVBL
CAVALIER         N/A     28  25  86 W8        29.88R WCI  20
GRAFTON        NOT AVBL
CANDO          FAIR      19  19 100 W9        29.90S WCI   9
FORT TOTTEN      N/A     26  22  86 CALM      29.95S
ROLLA          FAIR      27  23  86 W6        29.87R WCI  20
RUGBY          NOT AVBL
 ***** THE ABOVE OBSERVATIONS ARE NON NWS ARE NOT QUALITY
        CONTROLLED AND MAY MIS-REPORT RAIN FOR SNOW...
$$

 *****  OTHER OBSERVATIONS SOUTHEAST NORTH DAKOTA *****

CITY           SKY/WX    TMP DP  RH WIND       PRES   REMARKS
COOPERSTOWN    FAIR      27  25  93 W8        29.90R WCI  18
VALLEY CITY    NOT AVBL
OAKES            N/A     34  28  80 W5        29.93S
GWINNER          N/A     34  28  80 W9        29.92S
SHEYENNE NWR     N/A     33  29  85 W7        29.95S
BUFFALO        NOT AVBL
WYNDMERE       NOT AVBL
 ***** THE ABOVE OBSERVATIONS ARE NON NWS ARE NOT QUALITY
       CONTROLLED AND MAY MIS-REPORT RAIN FOR SNOW...
$$

  *****  WEATHER ACROSS NORTHERN MINNESOTA  *****

CITY           SKY/WX    TMP DP  RH WIND       PRES   REMARKS
FLAG ISLAND    MOCLDY    25  21  86 S6        29.83S WCI  18
WARROAD        FAIR      27  21  80 SW7       29.86R WCI  19
ROSEAU         FAIR      25  19  80 SW8       29.86R WCI  16
HALLOCK        FAIR      16  14  93 S5        29.87R WCI   9
THF RVR FALLS  FAIR      23  22  96 SW6       29.88S WCI  16
HALSTAD        NOT AVBL
FOSSTON        FAIR      19  18  93 S7        29.89R WCI  10
BAUDETTE       FAIR      25  22  88 SW7       29.83S WCI  17
WASKISH        FAIR      27  25  93 SW7       29.87R WCI  19
CROOKSTON      FAIR      21  19  93 SW6       29.90S WCI  14
$$
  *****  WEATHER ACROSS CENTRAL AND WEST MINNESOTA  *****

CITY           SKY/WX    TMP DP  RH WIND       PRES   REMARKS
BEMIDJI        FAIR      24  23  96 SW6       29.87S WCI  17
PARK RAPIDS    FAIR      19  16  88 CALM      29.88S FOG
WADENA         FAIR      30  27  86 W3        29.89F
DETROIT LAKES  FAIR      28  27  93 CALM      29.91S FOG
MOORHEAD       FAIR      30  27  86 S5        29.92S
FERGUS FALLS   FAIR      30  30 100 CALM      29.91R
ELBOW LAKE     FAIR      31  29  93 CALM      29.92R
MORRIS MN      MOCLDY    34  28  80 SW3       29.93R
STAPLES        FAIR      27  25  93 CALM      29.90R
WHEATON        FAIR      36  28  75 W5        29.96R
$$
  *****  WEATHER ELSEWHERE ACROSS MINNESOTA  *****

CITY           SKY/WX    TMP DP  RH WIND       PRES   REMARKS
DULUTH         FAIR      32  26  78 NW8       29.86S WCI  25
INTRNTL FALLS  FAIR      27  22  81 W6        29.84F WCI  20
ELY            NOT AVBL
CLOQUET        FAIR      30  25  80 CALM      29.87S
BRAINERD       FAIR      29  24  82 SW5       29.89S WCI  24
HIBBING        FAIR      19  19 100 NW3       29.87S FOG
ALEXANDRIA     FAIR      31  29  92 CALM      29.91R
SAINT CLOUD    CLOUDY    31  29  92 S3        29.91R
MINNEAPOLIS    MOCLDY    37  32  82 W3        29.93S
$$

  *****  WEATHER ACROSS SOUTH DAKOTA  *****

CITY           SKY/WX    TMP DP  RH WIND       PRES   REMARKS
SIOUX FALLS    CLOUDY    31  30  96 CALM      29.91F
BROOKINGS      MOCLDY    35  29  78 N5        29.93R
WATERTOWN      CLOUDY    35  30  82 NW6       29.92S
HURON          CLOUDY    36  34  92 NW7       29.94S
SISSETON         N/A     38  31  76 CALM      29.92R
ABERDEEN       CLOUDY    34  29  82 SW5       29.95S
MITCHELL       CLOUDY    33  30  88 NW7       29.95S
PIERRE         CLOUDY    39  31  72 SE3       29.96S
MOBRIDGE       MOCLDY    37  28  70 NW8       29.91F
RAPID CITY     CLOUDY    33  25  72 N6        29.96R
$$

  *****  SOME WEATHER IN NEARBY STATES *****

CITY           SKY/WX    TMP DP  RH WIND       PRES   REMARKS
GLASGOW MT     FAIR      19  16  88 S3        29.92R
GREAT FALLS MT FAIR      27  19  72 SW13      29.93R WCI  16
CHEYENNE WY    SNOW      27  27 100 NE9       29.79F VSB 1/4 WCI  18
SCOTTSBLUFF NE CLOUDY    34  31  88 E8        29.89F
OMAHA NE       CLOUDY    37  33  85 NW5       29.87S
DES MOINES IA  CLOUDY    40  36  86 E5        29.89F
DAVENPORT IA   CLOUDY    38  34  85 CALM      29.97S FOG
CHICAGO IL     CLOUDY    40  35  83 S7        29.97F
EAU CLAIRE WI  FAIR      29  28  96 CALM      29.92S FOG
LA CROSSE WI   FAIR      28  27  96 CALM      29.94R FOG
$$

  *****  SOME NATIONAL WEATHER *****

CITY           SKY/WX    TMP DP  RH WIND       PRES   REMARKS
LA GUARDIA NY  FAIR      47  27  45 W8        30.01R
RALEIGH NC     FAIR      42  33  70 SW7       30.19R
ATLANTA GA     FAIR      48  38  68 W5        30.25S
NEW ORLEANS LA FAIR      57  51  80 SE10      30.21S
OKLAHOMA CITY  FAIR      56  47  71 S16       29.79S
ALBUQUERQUE NM MOCLDY    52  20  28 S18       29.77F
SALT LAKE CITY MOCLDY    34  26  72 NW13      29.94R WCI  25
LOS ANGELES CA FAIR      57  22  25 N21G30    30.09R
BOISE ID       CLOUDY    36  27  69 W5        30.10R
SEATTLE WA     CLOUDY    46  37  71 S15       29.99F
$$

*** WEATHER ACROSS MANITOBA...SASKATCHEWAN AND ONTARIO ***
                ***ONTARIO***

CITY           SKY/WX    TMP DP  RH WIND       PRES   REMARKS
GERALDTON      FLURRIES   9   3  78 E3        29.91S
THUNDER BAY    MOCLDY    23  21  93 NE2       29.92R
SIOUX LOOKOUT  LGT SNOW  19  16  86 E3        29.83S
TORONTO        MOCLDY    34  27  75 S3        30.00S
BIG TROUT LK   FLURRIES   0  -4  85 NE3       30.00R
PICKLE LAKE    NOT AVBL
DRYDEN         FLURRIES  28  25  86 S6        29.81S WCI  22
KENORA         MOCLDY    25  25 100 SW7       29.81R WCI  17
$$
                *** MANITOBA***

CITY           SKY/WX    TMP DP  RH WIND       PRES   REMARKS
BRANDON        PTCLDY    27  23  86 W9        29.87R WCI  17
DAUPHIN        CLOUDY    18  14  86 N8        29.92R WCI   7
ISLAND LAKE    CLEAR     -9 -13  84 N3        30.00R
PILOT MOUND      N/A     23  21  93 W5          N/A  WCI  17
THE PAS        FLURRIES   3  -2  78 E5        29.97R WCI  -6
THOMPSON       FLURRIES   1  -4  78 E7        30.05R WCI -11
WINNIPEG       MOCLDY    19  18  93 NE5       29.86R WCI  13
LYNN LAKE      FLURRIES  -2  -4  92 E7        29.99R WCI -16
CHURCHILL      FLURRIES  -6 -11  77 N10       30.23R WCI -23
$$
                ***SASKATCHEWAN***

CITY           SKY/WX    TMP DP  RH WIND       PRES   REMARKS
ESTEVAN        CLEAR     16  14  93 SW8       29.89R WCI   5
KINDERSLEY     PTCLDY    18  16  93 E7        29.83R WCI   8
LLOYDMINSTER   FLURRIES  23  21  93 SW5       29.81S WCI  17
PRINCE ALBERT  CLOUDY    18  14  86 S3        29.90R
REGINA         CLEAR     19  18  93 SW6       29.87S WCI  11
YORKTON        CLOUDY    28  27  93 NW8       29.86R WCI  20
N. BATTLEFORD  CLOUDY    25  21  86 CALM      29.87R



USA.gov is the U.S. government's official web portal to all federal, state and local government web resources and services.